Regional Weather Roundup
Issued by NWS

Home | Current Version | Previous Version | Graphics & Text | Print | Product List | Glossary Off
Versions: 1 2 3 4 5 6 7 8 9 10 11 12 13 14 15 16 17 18 19 20 21 22 23 24 25 26 27 28 29 30 31 32 33 34 35 36 37 38 39 40 41 42 43 44 45 46 47 48 49 50

000
ASUS43 KMKX 262021
RWRWI

WISCONSIN REGIONAL WEATHER ROUNDUP
NATIONAL WEATHER SERVICE MILWAUKEE/SULLIVAN WI
200 PM CST FRI DEC 26 2014

NOTE: "FAIR" INDICATES FEW OR NO CLOUDS BELOW 12,000 FEET WITH NO
SIGNIFICANT WEATHER AND/OR OBSTRUCTIONS TO VISIBILITY.

WIZ001-002-006>008-014>016-023>028-262100-
NORTHWEST WISCONSIN

CITY           SKY/WX    TMP DP  RH WIND       PRES   REMARKS
SUPERIOR ARPT  CLOUDY    32  25  75 CALM      30.06R
ASHLAND        CLOUDY    31  27  85 N7        30.03R WCI  24
HAYWARD        CLOUDY    31  26  82 NE7       30.00R WCI  24
SIREN          CLOUDY    31  26  81 N6        30.03R WCI  25
CUMBERLAND     CLOUDY    30  27  86 N10       29.98S WCI  21
RICE LAKE      CLOUDY    32  28  84 N9        30.00R WCI  24
CHETEK         CLOUDY    32  29  88 N5        29.97S WCI  27
LADYSMITH      CLOUDY    33  30  88 N8        29.98S WCI  26
EAU CLAIRE     CLOUDY    35  29  78 N7        29.96S WCI  29
MENOMONIE      CLOUDY    34  30  86 N8        29.98S WCI  27
NEW RICHMOND   CLOUDY    32  30  92 N8        30.00R WCI  25
OSCEOLA        CLOUDY    32  31  96 N9        30.04S WCI  24
$$

WIZ003>005-009-010-017-018-262100-
NORTH CENTRAL WISCONSIN

CITY           SKY/WX    TMP DP  RH WIND       PRES   REMARKS
MANITOWISH WTR CLOUDY    30  29  96 N5        29.95R WCI  25
ARBOR VITAE    MIX PCPN  32  30  92 NE5       29.95R WCI  27
WOODRUFF       MIX PCPN  32  30  92 NE5       29.95R WCI  27
RHINELANDER    CLOUDY    30  29  96 N8        29.94S FOG     WCI  22
EAGLE RIVER    MIX PCPN  30  29  98 NE7       29.94S WCI  23
LAND O LAKES   CLOUDY    31  29  94 CALM      29.95S
PHILLIPS       CLOUDY    30  28  92 N7        29.95R WCI  23
TOMAHAWK       CLOUDY    32  30  92 CALM      29.94S FOG
MEDFORD        CLOUDY    32  30  92 N8        29.93R FOG     WCI  25
MERRILL        CLOUDY    33  32  96 NE3       29.94R FOG
$$

WIZ029-030-035-036-043>047-262100-
CENTRAL WISCONSIN

CITY           SKY/WX    TMP DP  RH WIND       PRES   REMARKS
WAUSAU         CLOUDY    35  30  82 N5        29.92S WCI  31
MOSINEE        PTSUNNY   32  32 100 E5        29.94R FOG     WCI  27
MARSHFIELD     SUNNY     38  31  76 E7        29.92S WCI  33
STEVENS POINT  FOG       31  30  97 N7        29.95R VSB 1   WCI  24
WAUPACA        CLOUDY    36  35  96 N7        29.95R FOG     WCI  30
WAUTOMA        MOSUNNY   45  34  65 CALM      29.93S
WISC RAPIDS    PTSUNNY   44  32  62 N6        29.94R
CAMP DOUGLAS   MOSUNNY   43  37  79 W1        29.93R
$$

WIZ011>013-019>022-031-037>040-048>050-262100-
NORTHEAST WISCONSIN

CITY           SKY/WX    TMP DP  RH WIND       PRES   REMARKS
ANTIGO         CLOUDY    32  32 100 NE5       29.93S FOG     WCI  27
SHAWANO        CLOUDY    35  34  96 CALM      29.96R FOG
OCONTO         CLOUDY    35  35  99 N3        29.96R
STURGEON BAY   CLOUDY    37  32  81 NW6       29.97R WCI  33
GREEN BAY      MOSUNNY   42  36  79 S5        29.95S
MANITOWOC      CLOUDY    42  37  82 SE7       29.96R
APPLETON       MOSUNNY   41  34  75 SW6       29.94S
CLINTONVILLE   FOG       32  32 100 N3        29.96R VSB 1
OSHKOSH        MOSUNNY   44  36  73 S5        29.94S
$$

WIZ032>034-041-042-053>061-262100-
SOUTHWEST WISCONSIN

CITY           SKY/WX    TMP DP  RH WIND       PRES   REMARKS
LA CROSSE      SUNNY     42  32  67 W7        29.94R
SPARTA         MOSUNNY   43  32  64 CALM      29.94R
VIROQUA        SUNNY     40  33  75 CALM      29.92R
BOSCOBEL       MOSUNNY   47  33  58 SW3       29.93S
PRAIRIE DU CHI PTSUNNY   44  32  62 SW3       29.93R
PLATTEVILLE    CLOUDY    44  36  73 S7        29.94R
$$

WIZ056-057-062-063-064-067-068-262100-
SOUTH CENTRAL WISCONSIN

CITY           SKY/WX    TMP DP  RH WIND       PRES   REMARKS
REEDSBURG      MOSUNNY   44  34  68 CALM      29.91S
BARABOO/DELLS  MOSUNNY   45  33  64 S7        29.91S
LONE ROCK      SUNNY     49  34  56 S5        29.92F
MINERAL POINT  MOSUNNY   45  34  65 SW6       29.92S
MADISON        PTSUNNY   45  34  65 W6        29.93F
MIDDLETON      SUNNY     47  33  57 SW7       29.93F
WATERTOWN      MOSUNNY   44  36  73 SW8       29.94S
MONROE         PTSUNNY   45  36  70 SW9       29.94S
JANESVILLE     MOSUNNY   48  36  61 SW12      29.95S
$$

WIZ051-052-058>065-066-070>072-262100-
SOUTHEAST WISCONSIN

CITY           SKY/WX    TMP DP  RH WIND       PRES   REMARKS
MILWAUKEE      PTSUNNY   47  35  63 SW8       29.96R
WAUKESHA       PTSUNNY   45  34  65 SW12      29.95F
MILWAUKEE/TIMM SUNNY     46  32  57 W12       29.97R
RACINE         PTSUNNY   48  36  63 SW9       29.97F
BURLINGTON     PTSUNNY   47  36  67 SW14      29.96S
KENOSHA        PTSUNNY   48  37  65 SW8       29.97S
FOND DU LAC    MOSUNNY   46  36  68 W6        29.94S
SHEBOYGAN      PTSUNNY   47  35  63 NW6       29.95R
WEST BEND      PTSUNNY   43  32  65 SW6       29.95R
JUNEAU         MOSUNNY   43  35  72 SW7       29.95S
$$

LSZ147-162-262100-
LAKE SUPERIOR

STATION/POSITION TIME  TEMP    WIND        PRES    WAVE
                       AIR SEA DIR/SP/G            HT/PER
                 (UTC) (F)     (DEG/KT/KT) (MB)    (FT/S)
DEVILS ISLAND    2000   32     360/  6/  7 1018.0R
PORT WING        1900   31      10/  7/  8 1017.6
SAXON HARBOR     1940   33      10/  7/  7 1016.9S
$$

LMZ867-665-643>646-262100-
LAKE MICHIGAN

STATION/POSITION TIME  TEMP    WIND        PRES    WAVE
                       AIR SEA DIR/SP/G            HT/PER
                 (UTC) (F)     (DEG/KT/KT) (MB)    (FT/S)
CHAMBERS ISLAND  1900   35      10/  4/  4 1014.6S
NORTHPORT PIER   1900   37     330/  7/  7 1014.2F
SISTER BAY       1913             CALM       N/A
ALGOMA LAKESHORE 1900          190/  5/  6   N/A
KEWAUNEE LAKESHO 1900   41     160/  4/  6 1013.2F
SHEBOYGAN LAKESH 2000   43 39  170/  7/  8 1014.9R
PORT WASHINGTON  1900   48     240/  6/  8 1014.6F
MILWAUKEE LAKESH 2000   47     250/  7/  9   N/A
KENOSHA   LAKESH 2000   49     230/  7/ 10 1014.9S
$$

TC  - TEMPERATURE IN CELSIUS
VSB - VISIBILITY IN STATUTE MILES
WCI - WIND CHILL INDEX
HX  - HEAT INDEX



USA.gov is the U.S. government's official web portal to all federal, state and local government web resources and services.